Location: *
(43.4667°N, 11.6833°E)
Time: 22:02:10
(UTC+00:00)

H-2A R/B - Pass Details

Date: 19 July 2019
Orbit: 733 x 838 km, 98.3° (Epoch: 25 August)

Event Time Altitude Azimuth Distance (km) Brightness Sun altitude
Rises 20:35:55 0° 207° (SSW) 3,375 5.1 -15.6°
Reaches altitude 10° 20:38:58 10° 224° (SW) 2,442 4.5 -15.9°
Maximum altitude 20:42:45 19° 269° (W) 1,876 4.4 -16.4°
Drops below altitude 10° 20:46:32 10° 314° (NW) 2,428 5.9 -16.8°
Sets 20:49:35 0° 332° (NNW) 3,350 7.0 -17.1°
